Weather reports worldwide

Advertisment
Barth, Germany (10180): temperature & dewpoint: 20.09.2018 05:00:00 - 26.09.2018 05:00:00 (CEST)Barth, Germany (10180): temperature 5cm & temperature -5cm: 20.09.2018 05:00:00 - 26.09.2018 05:00:00 (CEST)Barth, Germany (10180): temperature -20cm & temperature -100cm: 20.09.2018 05:00:00 - 26.09.2018 05:00:00 (CEST)Barth, Germany (10180): wind speed & gusts: 20.09.2018 05:00:00 - 26.09.2018 05:00:00 (CEST)Barth, Germany (10180): wind direction: 20.09.2018 05:00:00 - 26.09.2018 05:00:00 (CEST)Barth, Germany (10180): reduced air pressure: 20.09.2018 05:00:00 - 26.09.2018 05:00:00 (CEST)Barth, Germany (10180): visibility: 20.09.2018 05:00:00 - 26.09.2018 05:00:00 (CEST)Barth, Germany (10180): sunshine duration: 20.09.2018 05:00:00 - 26.09.2018 05:00:00 (CEST)Barth, Germany (10180): precipitation: 20.09.2018 05:00:00 - 26.09.2018 05:00:00 (CEST)
Date & Time tt [°C] td [°C] tt 5cm [°C] tt -5cm [°C] tt -20cm [°C] tt -100cm [°C] ff [km/h] ff [kn] fx [km/h] fx [kn] dd ppp [hPa] vv [km] sd [min] rr [mm]
26.09.2018 05:00:00 8,9 5,0 8,0 8,1 10,5 14,9 18 10 26 14 SW 1032,3 70 0 -
26.09.2018 04:00:00 8,1 4,8 7,4 7,9 10,6 14,9 14 8 21 11 SSW 1033,1 53 0 -
26.09.2018 03:00:00 7,5 4,4 6,5 7,7 10,8 14,9 16 8 20 11 SSW 1033,4 41 0 -
26.09.2018 02:00:00 7,4 4,3 5,6 7,8 11,0 14,9 14 7 19 10 SSW 1034,1 42 0 -
26.09.2018 01:00:00 7,5 4,2 5,5 8,0 11,3 14,9 14 7 20 11 SW 1034,8 62 0 -
26.09.2018 00:00:00 7,9 4,1 6,0 8,5 11,5 14,9 13 7 21 11 SSW 1035,1 56 0 -
25.09.2018 23:00:00 8,6 4,4 6,7 8,9 11,8 15,0 15 8 21 12 SSW 1035,5 59 0 -
25.09.2018 22:00:00 9,0 4,6 7,0 9,5 12,0 15,0 13 7 19 10 SW 1035,7 66 0 -
25.09.2018 21:00:00 8,0 4,6 4,2 9,6 12,3 15,0 10 5 13 7 SSW 1035,8 68 0 -
25.09.2018 20:00:00 7,3 4,5 2,5 10,5 12,6 15,0 6 3 13 7 SW 1035,9 70 0 -
25.09.2018 19:00:00 9,8 4,8 6,3 11,7 12,7 15,0 10 5 23 12 W 1036,3 70 25 -
25.09.2018 18:00:00 12,1 3,7 12,1 12,9 12,7 15,0 14 8 29 15 W 1036,2 68 59 -
25.09.2018 17:00:00 12,9 2,0 14,1 13,8 12,5 15,1 18 10 33 18 W 1036,2 29 60 -
25.09.2018 16:00:00 13,0 2,7 15,2 14,6 12,1 15,1 20 11 28 15 W 1036,3 21 59 -
25.09.2018 15:00:00 13,0 2,0 16,3 14,4 11,7 15,1 18 10 29 16 WNW 1036,3 24 58 -
25.09.2018 14:00:00 13,2 3,3 15,6 13,3 11,3 15,1 17 9 30 16 WNW 1036,5 62 34 -
25.09.2018 13:00:00 12,4 4,8 15,3 12,6 10,9 15,1 18 10 31 17 WNW 1036,3 69 24 -
25.09.2018 12:00:00 12,4 3,0 15,2 12,6 10,5 15,1 14 7 29 16 NW 1035,8 70 48 1,2
25.09.2018 11:00:00 11,8 2,9 13,2 11,4 10,1 15,1 18 10 31 17 NW 1035,1 33 58 0,0
25.09.2018 10:00:00 11,7 4,4 13,1 9,9 9,8 15,1 19 10 31 17 NW 1034,2 24 60 0,0
25.09.2018 09:00:00 10,8 5,3 11,7 8,1 9,7 15,2 15 8 24 13 NW 1033,5 41 35 0,0
25.09.2018 08:00:00 9,2 5,6 7,7 6,9 9,8 15,2 14 8 24 13 WNW 1032,9 62 11 0,0
25.09.2018 07:00:00 9,0 5,9 6,9 6,9 10,0 15,2 12 6 25 13 WNW 1032,2 52 0 0,0
25.09.2018 06:00:00 8,6 5,7 6,5 6,9 10,1 15,2 13 7 24 13 WNW 1031,7 50 0 0,0
25.09.2018 05:00:00 9,3 5,7 7,3 7,2 10,3 15,2 13 7 27 15 WNW 1031,0 56 0 0,0
25.09.2018 04:00:00 9,5 5,8 7,8 7,4 10,4 15,2 16 9 27 14 WNW 1030,5 49 0 0,0
25.09.2018 03:00:00 9,7 4,8 7,8 7,5 10,5 15,2 16 9 27 15 WNW 1029,8 68 0 0,0
25.09.2018 02:00:00 9,3 5,2 7,8 7,6 10,7 15,3 16 8 27 14 WNW 1029,4 64 0 0,0
25.09.2018 01:00:00 9,5 4,6 7,8 7,7 10,9 15,3 19 10 31 17 WNW 1028,8 70 0 0,0
25.09.2018 00:00:00 9,1 3,1 7,3 7,9 11,1 15,3 15 8 27 14 WNW 1028,2 70 0 0,0
24.09.2018 23:00:00 9,1 4,5 7,5 8,1 11,4 15,3 16 9 23 13 WNW 1027,5 70 0 0,0
24.09.2018 22:00:00 8,2 3,3 6,1 8,3 11,7 15,3 18 10 31 17 W 1026,8 70 0 0,6
24.09.2018 21:00:00 8,7 3,2 5,8 9,0 12,0 15,3 33 18 51 28 WNW 1026,2 2,7 0 0,0
24.09.2018 20:00:00 10,4 2,5 9,0 9,2 12,4 15,3 23 13 41 22 NW 1025,1 70 0 0,0
24.09.2018 19:00:00 10,0 3,3 8,7 10,6 12,6 15,3 19 10 36 20 WNW 1024,3 70 25 0,0
24.09.2018 18:00:00 10,2 4,0 10,2 11,5 12,7 15,4 14 8 53 28 WNW 1023,8 42 37 0,4
24.09.2018 17:00:00 11,9 2,4 12,6 12,6 12,6 15,4 25 13 46 25 W 1023,3 16 39 0,0
24.09.2018 16:00:00 12,7 2,1 13,0 14,2 12,3 15,4 28 15 45 24 NW 1022,9 18 49 0,0
24.09.2018 15:00:00 13,1 4,5 16,2 13,0 11,9 15,4 21 11 34 18 WNW 1022,6 36 27 0,0
24.09.2018 14:00:00 10,7 5,4 11,1 12,4 11,6 15,4 13 7 38 21 N 1022,5 56 21 0,0
24.09.2018 13:00:00 11,1 5,6 11,3 11,6 11,3 15,4 19 10 39 21 WNW 1021,5 39 29 -
24.09.2018 12:00:00 9,4 6,3 8,7 9,8 11,3 15,4 14 8 27 14 WNW 1021,0 34 0 0,6
24.09.2018 11:00:00 10,1 5,3 9,5 9,7 11,2 15,4 19 10 40 21 NW 1020,0 56 0 0,3
24.09.2018 10:00:00 10,1 5,2 8,8 10,1 11,1 15,5 21 12 47 26 NNW 1018,7 29 4 0,0
24.09.2018 09:00:00 10,5 5,5 10,4 9,3 11,1 15,5 30 16 44 24 WNW 1017,4 24 16 0,0
24.09.2018 08:00:00 10,1 5,5 9,0 8,5 11,2 15,5 27 15 46 25 WNW 1016,3 37 0 0,0
24.09.2018 07:00:00 10,0 5,6 9,3 8,7 11,4 15,5 26 14 43 23 WNW 1015,5 40 0 0,0
24.09.2018 06:00:00 9,8 5,2 8,8 8,5 11,5 15,5 24 13 47 25 WNW 1014,8 33 0 0,0
24.09.2018 05:00:00 9,8 5,1 8,8 8,6 11,7 15,5 25 14 44 24 WNW 1014,2 32 0 0,0
24.09.2018 04:00:00 10,0 5,6 9,0 8,9 11,9 15,5 25 14 42 23 WNW 1013,4 38 0 0,0
24.09.2018 03:00:00 10,2 6,0 8,9 9,2 12,1 15,5 25 14 43 23 WNW 1012,7 31 0 0,0
24.09.2018 02:00:00 10,3 6,4 8,8 9,3 12,3 15,5 28 15 40 22 WNW 1011,7 39 0 1,0
24.09.2018 01:00:00 9,6 6,1 8,2 9,7 12,5 15,6 25 13 39 21 WNW 1011,1 1,6 0 0,1
24.09.2018 00:00:00 9,4 5,2 7,2 9,9 12,8 15,6 15 8 46 25 NW 1010,3 69 0 0,6
23.09.2018 23:00:00 10,5 5,3 9,0 10,4 13,0 15,6 19 11 43 23 NW 1009,6 48 0 0,0
23.09.2018 22:00:00 10,2 6,7 8,5 10,8 13,2 15,6 11 6 18 10 WNW 1008,7 47 0 0,0
23.09.2018 21:00:00 9,9 7,0 8,5 11,2 13,5 15,6 8 5 14 8 WNW 1008,2 64 0 0,0
23.09.2018 20:00:00 8,9 7,3 7,9 11,7 13,7 15,6 7 4 10 6 W 1007,7 70 0 0,0
23.09.2018 19:00:00 10,0 7,3 8,8 12,5 13,8 15,6 4 2 11 6 WSW 1007,8 70 0 0,0
23.09.2018 18:00:00 10,3 7,7 9,5 12,9 14,0 15,6 6 3 31 17 SW 1008,2 70 0 1,2
23.09.2018 17:00:00 12,4 7,8 12,2 13,8 14,0 15,7 13 7 23 12 WSW 1008,4 52 0 0,0
23.09.2018 16:00:00 12,6 7,7 12,5 14,3 13,9 15,7 18 10 25 14 WSW 1009,5 56 0 0,0
23.09.2018 15:00:00 13,6 8,0 14,5 15,3 13,6 15,7 16 8 29 16 WSW 1009,5 51 6 0,0
23.09.2018 14:00:00 13,8 8,3 15,4 15,5 13,3 15,7 20 11 30 16 WSW 1010,4 20 28 0,0
23.09.2018 13:00:00 13,4 8,9 15,2 14,6 12,9 15,7 18 10 31 17 WSW 1011,3 28 4 0,0
23.09.2018 12:00:00 13,0 9,0 14,9 14,1 12,5 15,7 18 10 29 15 WSW 1011,7 28 10 0,0
23.09.2018 11:00:00 11,8 8,5 13,5 13,2 12,2 15,7 19 11 32 17 SW 1012,0 15 38 0,0
23.09.2018 10:00:00 10,8 8,1 12,3 11,7 12,0 15,7 19 10 33 18 SW 1012,3 12 38 0,0
23.09.2018 09:00:00 10,1 7,8 11,2 10,5 11,9 15,7 20 11 33 18 WSW 1012,0 12 42 0,0
23.09.2018 08:00:00 9,3 7,4 9,5 9,5 12,0 15,7 19 10 33 18 SW 1011,9 10 19 0,0
23.09.2018 07:00:00 8,8 7,1 8,1 9,3 12,2 15,7 19 11 32 18 SW 1011,8 10 0 0,0
23.09.2018 06:00:00 9,1 7,1 8,0 9,5 12,3 15,8 21 12 34 18 SW 1012,1 13 0 0,0
23.09.2018 05:00:00 9,4 7,3 8,5 9,6 12,4 15,8 23 12 35 19 WSW 1012,3 17 0 0,0
23.09.2018 04:00:00 9,5 7,3 8,4 9,7 12,6 15,8 22 12 36 19 SW 1012,5 25 0 0,0
23.09.2018 03:00:00 10,4 7,8 9,7 10,0 12,7 15,8 21 12 33 18 SW 1012,7 35 0 0,0
23.09.2018 02:00:00 10,6 7,4 9,7 10,2 12,9 15,8 21 12 33 18 SW 1012,8 47 0 0,0
23.09.2018 01:00:00 10,9 7,4 10,0 10,3 13,0 15,8 24 13 35 19 SW 1012,8 51 0 0,0
23.09.2018 00:00:00 10,9 7,3 10,0 10,2 13,2 15,8 21 12 31 17 SW 1012,9 57 0 0,0
22.09.2018 23:00:00 10,9 7,1 9,8 10,4 13,5 15,8 22 12 35 19 SW 1012,9 54 0 0,0
22.09.2018 22:00:00 11,1 7,2 10,1 10,6 13,8 15,8 22 12 37 20 SW 1012,9 55 0 0,0
22.09.2018 21:00:00 11,0 7,2 9,6 10,8 14,1 15,8 21 12 38 21 SW 1012,8 59 0 0,0
22.09.2018 20:00:00 11,5 6,9 10,0 11,5 14,4 15,8 26 14 40 21 WSW 1012,5 69 0 0,0
22.09.2018 19:00:00 12,4 6,8 11,6 12,6 14,6 15,8 26 14 43 23 SW 1012,7 70 16 0,0
22.09.2018 18:00:00 12,5 8,2 11,6 13,4 14,7 15,8 23 13 55 30 WSW 1012,9 70 13 0,0
22.09.2018 17:00:00 12,9 9,2 12,5 13,8 14,9 15,8 22 12 50 27 SW 1013,0 52 3 0,0
22.09.2018 16:00:00 11,7 7,8 10,4 14,2 15,0 15,8 32 18 55 30 WSW 1013,4 49 5 0,6
22.09.2018 15:00:00 11,9 8,0 11,1 14,7 14,9 15,8 38 20 59 32 WSW 1013,1 35 5 1,6
22.09.2018 14:00:00 15,3 6,2 15,3 16,2 14,7 15,8 31 17 49 26 WSW 1012,6 70 36 0,0
22.09.2018 13:00:00 15,7 8,0 18,2 15,9 14,3 15,8 31 17 52 28 WSW 1013,0 27 39 0,0
22.09.2018 12:00:00 15,0 7,9 16,3 15,9 13,8 15,8 25 13 42 23 WSW 1013,3 18 54 0,0
22.09.2018 11:00:00 13,7 8,3 16,0 14,6 13,4 15,8 26 14 45 24 SW 1013,2 17 57 0,0
22.09.2018 10:00:00 13,1 8,8 15,0 13,1 13,1 15,8 29 16 42 23 WSW 1012,7 20 42 0,0
22.09.2018 09:00:00 11,4 8,2 12,1 11,4 13,1 15,8 20 11 34 19 SW 1012,1 36 17 0,0
22.09.2018 08:00:00 10,3 7,5 10,0 10,3 13,1 15,8 22 12 34 19 SW 1011,4 62 0 0,0
22.09.2018 07:00:00 10,2 7,5 9,2 10,1 13,3 15,8 23 12 36 19 SW 1010,4 48 0 0,1
22.09.2018 06:00:00 9,7 6,8 8,7 9,9 13,5 15,8 24 13 40 22 SW 1010,0 62 0 0,0
22.09.2018 05:00:00 9,6 6,2 8,7 9,8 13,8 15,8 25 13 36 19 SW 1009,4 70 0 0,0
22.09.2018 04:00:00 9,9 5,7 8,7 9,8 14,1 15,8 26 14 42 23 SW 1009,0 70 0 0,0
22.09.2018 03:00:00 9,8 5,2 8,5 10,1 14,4 15,8 22 12 41 22 SW 1008,2 70 0 0,0
22.09.2018 02:00:00 10,5 4,9 9,1 10,5 14,8 15,8 25 14 43 23 SW 1007,7 70 0 0,0
22.09.2018 01:00:00 11,2 5,5 10,2 11,0 15,2 15,8 25 14 42 23 SW 1007,6 70 0 0,0
22.09.2018 00:00:00 10,8 6,8 9,9 11,5 15,6 15,8 16 9 44 24 SW 1007,3 70 0 0,0
21.09.2018 23:00:00 12,1 6,9 11,2 12,0 16,0 15,8 22 12 63 34 SW 1006,5 70 0 0,0
21.09.2018 22:00:00 13,0 6,4 11,9 12,6 16,5 15,8 30 16 51 28 W 1005,9 66 0 0,0
21.09.2018 21:00:00 12,9 6,6 11,9 13,5 16,9 15,8 32 18 66 36 W 1005,6 66 0 0,0
21.09.2018 20:00:00 13,9 8,5 12,3 14,7 17,3 15,8 27 14 36 20 W 1004,6 64 0 0,0
21.09.2018 19:00:00 13,7 11,2 12,9 15,2 17,7 15,8 18 10 40 21 WSW 1003,8 39 0 0,3
21.09.2018 18:00:00 13,7 11,3 12,7 15,8 18,2 15,8 22 12 46 25 WSW 1003,2 16 0 0,7
21.09.2018 17:00:00 14,6 11,1 13,5 16,9 18,6 15,8 28 15 48 26 W 1002,4 44 0 3,0
21.09.2018 16:00:00 14,2 12,9 13,7 19,0 18,8 15,8 31 17 86 46 W 1002,2 2,2 0 3,4
21.09.2018 15:00:00 25,2 10,1 24,2 21,8 18,5 15,8 28 15 58 32 SW 998,7 27 0 0,0
21.09.2018 14:00:00 26,3 9,8 26,1 22,3 18,0 15,8 40 21 65 35 SSW 999,4 24 25 0,0
21.09.2018 13:00:00 26,6 11,2 26,7 22,1 17,5 15,8 35 19 62 34 SSW 1000,0 15 44 0,0
21.09.2018 12:00:00 26,6 12,0 28,2 20,8 16,9 15,8 39 21 58 32 SSW 1000,8 13 54 0,0
21.09.2018 11:00:00 25,4 12,7 27,3 19,4 16,5 15,8 28 15 47 25 S 1001,4 8 60 0,0
21.09.2018 10:00:00 21,9 12,1 22,8 17,1 16,3 15,8 22 12 34 18 S 1002,8 15 56 0,0
21.09.2018 09:00:00 19,1 11,2 18,5 15,7 16,3 15,8 16 9 24 13 SSE 1003,6 13 44 0,0
21.09.2018 08:00:00 17,7 10,7 16,2 14,8 16,5 15,8 14 8 24 13 S 1004,6 30 8 0,0
21.09.2018 07:00:00 16,8 10,8 15,0 14,9 16,6 15,8 17 9 28 15 SSE 1005,3 26 0 0,0
21.09.2018 06:00:00 17,3 11,0 15,4 15,0 16,8 15,7 13 7 23 12 SSE 1006,4 27 0 0,0
21.09.2018 05:00:00 17,1 11,2 15,2 15,3 17,0 15,7 15 8 23 13 SSE 1007,3 25 0 0,0
21.09.2018 04:00:00 17,2 11,4 15,4 15,5 17,3 15,7 14 8 23 12 SSE 1008,3 23 0 0,0
21.09.2018 03:00:00 17,1 11,5 15,2 15,8 17,5 15,7 12 6 19 11 SSE 1009,2 24 0 0,0
21.09.2018 02:00:00 16,7 11,3 13,7 16,1 17,7 15,7 9 5 14 8 SSE 1010,0 26 0 0,0
21.09.2018 01:00:00 18,1 11,4 15,0 16,6 17,9 15,7 8 4 14 8 SSE 1010,7 26 0 0,0
21.09.2018 00:00:00 18,7 11,6 16,7 17,0 18,2 15,7 8 5 16 8 S 1011,3 28 0 0,0
20.09.2018 23:00:00 18,2 11,4 14,5 17,2 18,5 15,7 8 4 11 6 SSE 1012,0 29 0 0,0
20.09.2018 22:00:00 18,8 11,4 15,1 17,8 18,8 15,7 8 4 14 7 S 1012,2 30 0 0,0
20.09.2018 21:00:00 20,0 11,4 15,7 18,5 19,1 15,7 8 4 12 7 S 1012,7 32 0 0,0
20.09.2018 20:00:00 21,1 11,3 16,6 19,5 19,3 15,7 8 5 17 9 S 1012,9 23 0 0,0
20.09.2018 19:00:00 22,4 11,7 20,0 20,8 19,4 15,7 13 7 29 16 SSW 1013,1 48 20 0,0
20.09.2018 18:00:00 24,1 11,3 23,3 21,6 19,3 15,7 19 10 30 16 SSW 1013,3 44 0 0,0
20.09.2018 17:00:00 24,0 11,5 23,6 22,0 19,2 15,7 14 8 36 19 SW 1013,7 46 1 0,0
20.09.2018 16:00:00 24,2 11,5 24,8 22,5 19,0 15,7 23 13 42 23 SW 1014,0 35 2 0,0
20.09.2018 15:00:00 23,9 11,6 24,3 22,8 18,6 15,7 29 15 48 26 SW 1014,3 33 18 0,0
20.09.2018 14:00:00 24,2 12,6 26,6 23,2 18,1 15,7 29 15 50 27 SW 1014,7 14 54 0,0
20.09.2018 13:00:00 23,1 12,7 24,4 22,2 17,5 15,7 29 15 48 26 WSW 1015,1 29 56 0,0
20.09.2018 12:00:00 22,5 13,5 25,0 21,1 17,0 15,7 21 11 41 22 SW 1015,4 14 60 0,0
20.09.2018 11:00:00 21,0 13,0 23,5 19,3 16,6 15,7 24 13 36 19 SW 1015,8 13 60 0,0
20.09.2018 10:00:00 19,6 12,9 21,5 17,5 16,4 15,7 21 11 31 17 SSW 1015,9 17 59 0,0
20.09.2018 09:00:00 17,8 12,2 17,8 15,9 16,4 15,7 18 10 24 13 SSW 1015,8 26 60 0,0
20.09.2018 08:00:00 15,9 11,8 15,1 14,7 16,5 15,7 13 7 20 11 SSW 1015,8 31 5 0,0
20.09.2018 07:00:00 16,5 11,8 14,6 14,8 16,7 15,7 15 8 22 12 SW 1015,4 24 0 0,0
20.09.2018 06:00:00 16,2 11,4 13,5 15,1 16,9 15,6 10 5 22 12 SSW 1015,4 23 0 0,0
20.09.2018 05:00:00 16,8 11,5 14,0 15,4 17,2 15,6 10 6 27 14 SSW 1015,3 24 0 0,0

tt = temperature
td = dewpoint
tt 5cm = temperature 5cm
tt -5cm = temperature -5cm
tt -20cm = temperature -20cm
tt -100cm = temperature -100cm
ff = wind speed
fx = gusts
dd = wind direction
ppp = reduced air pressure
vv = visibility
sd = sunshine duration
rr = precipitation

Next stations